Погода Ростов Великий

Погода Ростов Великий : погода сейчас, прогноз погоды и архив. Всё, что Вы хотите узнать о погоде Ростов Великий!

Хотите узнать прогноз погоды Ростов Великий? Тогда Вам сюда: Погода Ростов Великий

Поиск расширенной информации на нашем сайте:

Другие новости

Новости СМИ2

Главная страница сайта

Новости сайта

03.07.2017

Напоминаем, что на нашем специализированном сайте Метеоцентр.Азия вы можете получить высокодетализированные автоматические прогнозы погоды по пунктам России, СНГ и мира в авиационном формате (включающие направление и скорость ветра, видимость, явления погоды, количество и форму облачности, нижнюю и верхнюю границу облачности).


Погода Ростов Великий - сегодня

Время (UTC), дата Ветер
(°,м/с) 
Видим.   Явления Облачность Т
(°С)
Тd
(°С)
f(%) Тe
(°С)
Pmin
(гПа)
dP
(гПа)
Po
(мм)
O2
(г/м3)
Тmin Tmax R s Состояние
почвы
09 22.11.17 360 (С) 1500 м  снег{ливн. осадки}  10/10 300 м 
[Frnb|Ns]
-1.6 -2.3 95 -4  1006.8  0.3  746  302           
12 22.11.17 360 (С) 6-10{10}  1600 м  снег{ливн. осадки}  10/10 300 м 
[Frnb|Ns]
-2.4 -3 96 -6  1006.9  0.1  746  303           
15 22.11.17 350 (С) 5-10{10}  1300 м  снег  10/0 средняя 
[As op]
-3.2 -3.8 96 -7  1008.1  1.2  747  305    -1     
18 22.11.17 350 (С) 3{10}  4600 м  слаб. снег  10/0 средняя 
[As op]
-3.4 -4.3 93 -6  1009.4  1.2  748  305           
21 22.11.17 360 (С) 3{10}  23000 м  {снег}  10/0 средняя 
[Ac As]
-4.1 -5.8 88 -6  1010.7  1.2  748  307           
00 23.11.17 360 (С) 4-10{10}  50000 м  {снег}  10/10 1000 м 
[Sc]
-4.5 -7.1 82 -8  1012.1  1.3  749  308           
03 23.11.17 360 (С) 6-11{11}  50000 м    10/10 1000 м 
[Sc]
-4.7 -7.6 80 -9  1013.9  1.8  751  309  -4.7    0.7  равномерный
сухой снег
100% 
06 23.11.17 010 (С) 3{11}  30000 м    10/10 600 м 
[Sc]
-5.2 -7.8 82 -8  1016  752  310  -5.3         
09 23.11.17 010 (С) 50000 м    10/10 600 м 
[Sc]
-4.5 -7.2 81 -7  1017.3  1.3  753  309           
12 23.11.17 360 (С) 50000 м    10/10 600 м 
[Sc]
-4.3 -6.4 85 -7  1018.6  1.3  754  309           
15 23.11.17 010 (С) 35000 м    10/10 600 м 
[Sc]
-4.6 -6.9 84 -7  1020.6  756  310    -4.1       
18 23.11.17 040 (СВ) 50000 м    10/10 600 м 
[Sc]
-5.6 -7.5 86 -7  1022.6  1.9  757  312           
21 23.11.17 030 (СВ) 50000 м    10/10 600 м 
[Sc]
-6.7 -8.4 88 -8  1023.5  0.9  758  314           
00 24.11.17 050 (СВ) 50000 м    10/10 600 м 
[Sc]
-7 -8.5 89 -8  1024.7  1.2  759  315           
03 24.11.17 030 (СВ) 50000 м    10/10 600 м 
[Sc]
-7.7 -8.5 94 -7  1025.2  0.6  759  316  -7.7      равномерный
сухой снег
100% 
06 24.11.17 030 (СВ) 30000 м    10/10 600 м 
[Sc]
-8.1 -8.9 94 -8  1026  0.8  760  316  -8.2         
09 24.11.17 250 (З) 7000 м  снежные зёрна  10/10 300 м 
[St]
-7.6 -8.6 93 -7  1026.1  0.1  760  316           
12 24.11.17 200 (Ю) 10 км  {снег}  10/10 600 м 
[Sc]
-8.2 -9 94 -8  1026.1  0.1  760  317           
15 24.11.17 310 (СЗ) 15000 м    10/10 600 м 
[Sc]
-8.3 -9.9 88 -8  1025.9  -0.2  760  317    -7.6  0.0     
18 24.11.17 270 (З) 15000 м    10/10 600 м 
[Sc]
-8.1 -9 93 -8  1025.3  -0.6  759  316           
21 24.11.17 260 (З) 20000 м    10/10 600 м 
[Sc]
-8.4 -9.2 94 -8  1024.5  -0.8  758  316           
00 25.11.17 170 (Ю) 6000 м  дымка  10/10 600 м 
[Sc]
-8.6 -9.4 94 -8  1024.2  -0.3  758  316           
03 25.11.17 240 (ЮЗ) 15000 м    10/10 600 м 
[Sc]
-8.6 -9.5 93 -8  1023.8  -0.4  758  316  -8.9      равномерный
сухой снег
100% 
06 25.11.17 220 (ЮЗ) 15000 м    10/10 600 м 
[Sc]
-8.6 -9.5 93 -10  1023.8  -0.5  758  316           
09 25.11.17 170 (Ю) 15000 м    10/10 600 м 
[Sc]
-8.1 -8.8 95 -10  1022.9  -0.4  757  315           
Время (UTC), дата Ветер
(°,м/с) 
Видим.   Явления Облачность Т
(°С)
Тd
(°С)
f(%) Тe
(°С)
Pmin
(гПа)
dP
(гПа)
Po
(мм)
O2
(г/м3)
Тmin Tmax R s Состояние
почвы

Для получения пояснительной информации подведите курсор к названию столбца.

ПОГОДА Ростов Великий - архив

Всё, что Вы хотите узнать о погоде Ростов Великий - удобно и подробно!

Выберите нужную дату (начиная с 1 января 2015* года) и нажмите кнопку "Найти".
Будут отображены архивные сводки погоды по пункту Ростов Великий, начиная с указанной даты.


Отображать данные в формате CSV (для использования в таблицах Excel)


Внимание! Наш архив погоды предназначен исключительно для личного некоммерческого использования в познавательных целях. Если Вам необходимы официальные справки о состоянии погоды (для производственных, юридических, коммерческих и т.п. целей), обращайтесь в органы Росгидромета.

*Примечание: данная дата относится к архиву по метеостанциям СССР (Россия, СНГ, Балтия).
Архив по метеостанциям Зарубежной Европы и Азии (кроме Китая) хранится 10 дней, по другим регионам земного шара (Китай, Африка, Америка, Австралия, Океания) - 1 день.

Ростов Великий - район местоположения метеостанции


Название, широта, долгота, высота метеостанции:
Ростов Великий 57.2°ш. 39.4°д. 101 м над ур. моря [Российская Федерация]

Дополнительная информация

В oтличие oт бoльшинства пoгoдных сайтoв мы публикуем пoдрoбную метеoинфoрмацию в детальнoм прoфессиoнальнoм фoрмате.

Характеристики температуры и влажнoсти вoздуха измеряются на высoте 2 м в тени вдали oт зданий и деревьев.
Скoрoсть ветра измеряется на высoте 10 м (на урoвне рoста челoвека скoрoсть ветра ниже в 1.5-2 раза). Если метеoстанция нахoдится в гoрoде или в лесу, тo скoрoсть ветра занижена на 2-4 м/с пo сравнению с oткрытым местoм. Скoрoсть ветра над акватoриями крупных рек и oзёр, а также на вершинах хoлмoв на 2-5 м/с выше, чем в oбычных услoвиях.
Атмoсфернoе давление в разных тoчках местнoсти мoжет значительнo oтличаться oт давления на метеoстанции, в зависимoсти oт услoвий рельефа (при пoдъёме на 10 м давление пoнижается примернo на 1 мм рт.ст.).